Location: Newark
(43.0117°N, 7.5572°W)
Time: 20:00:59
(UTC+00:00)

X-37B - Pass Details

Date: 02 October 2020
Orbit: 382 x 392 km, 45.0° (Epoch: 15 October)

Event Time Altitude Azimuth Distance (km) Brightness Sun altitude
Rises 19:05:27 0° 213° (SSW) 2,253 4.9 -11.1°
Reaches altitude 10° 19:07:51 10° 195° (SSW) 1,401 3.5 -11.6°
Maximum altitude 19:10:13 20° 146° (SSE) 968 2.2 -12.0°
Enters shadow 19:10:59 18° 126° (SE) 1,023 2.2 -12.1°
